sat.trackr.live / text

‹ back to catalog

STARLINK-11636 [DTC]

NORAD 63194 · 2025-048M

PAYLOAD ACTIVE UNKNOWN

§ Identity

Operator
Country
US
Launch date
2025-03-13
Launch site
AFETR
Launch vehicle
Mass (kg)
RCS (m²)

Purposes: comms

External: N2YO · Heavens-Above · Gunter

§ Orbital elements

Epoch: 2026-09-20T22:01:00.791328Z

Period
91.67 min
Inclination
43.0002°
Eccentricity
0.0001857
Mean motion
15.70873443 rev/d
Perigee alt
355.1 km
Apogee alt
357.7 km
Semi-major
6,734.5 km
B*
8.4175e-4
RAAN
223.2848°
Arg perigee
263.0881°
Mean anomaly
96.9775°
Rev number
8,922

§ Raw data

STARLINK-11636 [DTC]1 63194U 25048M   26263.91737027  .00109144  00000+0  84175-3 0  99932 63194  43.0002 223.2848 0001857 263.0881  96.9775 15.70873443 89228

JSON: /api/v1/satellites/63194 · /tle

For live sub-satellite position, see the globe view (requires WebGL).

§ Visibility from observer

Set your observer location to see the next 7 days of passes ≥ 10°. The values pass through the URL so the page stays shareable.

No JS? Fill the form by hand. The geolocation button needs JavaScript.